Time,TemperatureF,DewpointF,PressureIn,WindDirection,WindDirectionDegrees,WindSpeedMPH,WindSpeedGustMPH,Humidity,HourlyPrecipIn,Conditions,Clouds,dailyrainin,SoftwareType,DateUTC
2013-11-09 16:43:00,34.4,27.3,30.14,NNE,14,0.0,0.0,75,0.00,CLR,,0.00,WeatherDisplay:10.37,2013-11-10 01:43:00,
2013-11-09 16:48:00,34.4,27.3,30.15,NNE,14,0.0,0.0,75,0.00,CLR,,0.00,WeatherDisplay:10.37,2013-11-10 01:48:00,
2013-11-09 16:53:00,34.9,27.8,30.16,NNE,14,0.0,0.0,75,0.00,CLR,,0.00,WeatherDisplay:10.37,2013-11-10 01:53:00,
2013-11-09 16:58:00,35.3,28.2,30.15,NNE,14,0.0,0.0,75,0.00,CLR,,0.00,WeatherDisplay:10.37,2013-11-10 01:58:00,
2013-11-09 17:03:00,35.5,28.4,30.15,NNE,14,0.0,0.0,75,0.00,CLR,,0.00,WeatherDisplay:10.37,2013-11-10 02:03:00,
2013-11-09 17:08:00,35.5,28.7,30.16,NNE,14,0.0,0.0,76,0.00,CLR,,0.00,WeatherDisplay:10.37,2013-11-10 02:08:00,
2013-11-09 17:13:00,35.7,28.9,30.16,NNE,14,0.0,0.0,76,0.00,CLR,,0.00,WeatherDisplay:10.37,2013-11-10 02:13:00,
2013-11-09 17:18:00,36.0,28.8,30.16,NNE,14,0.0,0.0,75,0.00,CLR,,0.00,WeatherDisplay:10.37,2013-11-10 02:18:00,
2013-11-09 17:23:00,36.1,28.9,30.16,NNE,14,0.0,0.0,75,0.00,CLR,,0.00,WeatherDisplay:10.37,2013-11-10 02:23:00,
2013-11-09 17:28:00,36.0,29.2,30.16,NNE,14,0.0,0.0,76,0.00,CLR,,0.00,WeatherDisplay:10.37,2013-11-10 02:28:00,
2013-11-09 17:33:00,35.8,29.0,30.16,NNE,14,0.0,0.0,76,0.00,CLR,,0.00,WeatherDisplay:10.37,2013-11-10 02:33:00,
2013-11-09 17:38:00,35.8,29.3,30.16,NNE,14,0.0,0.0,77,0.00,CLR,,0.00,WeatherDisplay:10.37,2013-11-10 02:38:00,
2013-11-09 17:43:00,35.8,29.3,30.16,NNE,14,0.0,0.0,77,0.00,CLR,,0.00,WeatherDisplay:10.37,2013-11-10 02:43:00,
2013-11-09 17:48:00,35.7,29.2,30.16,NNE,15,0.0,0.0,77,0.00,CLR,,0.00,WeatherDisplay:10.37,2013-11-10 02:48:00,
2013-11-09 17:53:00,35.6,29.4,30.16,NNE,15,0.0,0.0,78,0.00,CLR,,0.00,WeatherDisplay:10.37,2013-11-10 02:53:00,
2013-11-09 17:58:00,35.5,29.3,30.16,NNE,15,0.0,0.0,78,0.00,CLR,,0.00,WeatherDisplay:10.37,2013-11-10 02:58:00,
2013-11-09 18:03:00,35.5,29.3,30.16,NNE,15,0.0,0.0,78,0.00,CLR,,0.00,WeatherDisplay:10.37,2013-11-10 03:03:00,
2013-11-09 18:08:00,35.5,29.6,30.15,NNE,15,0.0,0.0,79,0.00,CLR,,0.00,WeatherDisplay:10.37,2013-11-10 03:08:00,
2013-11-09 18:13:00,35.4,29.5,30.16,NNE,15,0.0,0.0,79,0.00,CLR,,0.00,WeatherDisplay:10.37,2013-11-10 03:13:00,
2013-11-09 18:18:00,35.4,29.8,30.15,NNE,15,0.0,0.0,80,0.00,CLR,,0.00,WeatherDisplay:10.37,2013-11-10 03:18:00,
2013-11-09 18:23:00,35.5,29.9,30.15,NNE,15,0.0,0.0,80,0.00,CLR,,0.00,WeatherDisplay:10.37,2013-11-10 03:23:00,
2013-11-09 18:28:00,35.5,29.9,30.15,NNE,15,0.0,0.0,80,0.00,CLR,,0.00,WeatherDisplay:10.37,2013-11-10 03:28:00,
2013-11-09 18:33:00,35.5,29.9,30.15,NNE,15,0.0,0.0,80,0.00,CLR,,0.00,WeatherDisplay:10.37,2013-11-10 03:33:00,
2013-11-09 18:38:00,35.4,29.8,30.15,NNE,15,0.0,0.0,80,0.00,CLR,,0.00,WeatherDisplay:10.37,2013-11-10 03:38:00,
2013-11-09 18:43:00,35.4,30.1,30.15,NNE,15,0.0,0.0,81,0.00,CLR,,0.00,WeatherDisplay:10.37,2013-11-10 03:43:00,
2013-11-09 18:48:00,35.3,30.1,30.15,NNE,15,0.0,0.0,81,0.00,CLR,,0.00,WeatherDisplay:10.37,2013-11-10 03:48:00,
2013-11-09 18:53:00,35.3,30.4,30.14,NNE,15,0.0,0.0,82,0.00,CLR,,0.00,WeatherDisplay:10.37,2013-11-10 03:53:00,
2013-11-09 18:58:00,35.3,30.4,30.14,NNE,15,0.0,0.0,82,0.00,CLR,,0.00,WeatherDisplay:10.37,2013-11-10 03:58:00,
2013-11-09 19:03:00,35.4,30.5,30.14,NNE,15,0.0,0.0,82,0.00,CLR,,0.00,WeatherDisplay:10.37,2013-11-10 04:03:00,
2013-11-09 19:08:00,35.5,30.5,30.14,NNE,15,0.0,0.0,82,0.00,CLR,,0.00,WeatherDisplay:10.37,2013-11-10 04:08:00,
2013-11-09 19:13:00,35.6,30.9,30.14,NNE,15,0.0,0.0,83,0.00,CLR,,0.00,WeatherDisplay:10.37,2013-11-10 04:13:00,
2013-11-09 19:18:00,35.9,30.9,30.14,NNE,15,0.0,0.0,82,0.00,CLR,,0.00,WeatherDisplay:10.37,2013-11-10 04:18:00,
2013-11-09 19:23:00,36.2,31.2,30.13,NNE,15,0.0,0.0,82,0.00,CLR,,0.00,WeatherDisplay:10.37,2013-11-10 04:23:00,
2013-11-09 19:28:00,36.2,31.2,30.14,NNE,15,0.0,0.0,82,0.00,CLR,,0.00,WeatherDisplay:10.37,2013-11-10 04:28:00,
2013-11-09 19:33:00,36.3,31.3,30.14,NNE,15,0.0,0.0,82,0.00,CLR,,0.00,WeatherDisplay:10.37,2013-11-10 04:33:00,
2013-11-09 19:38:00,36.4,31.7,30.14,NNE,15,0.0,0.0,83,0.00,CLR,,0.00,WeatherDisplay:10.37,2013-11-10 04:38:00,
2013-11-09 19:43:00,36.5,31.8,30.14,NNE,15,0.0,0.0,83,0.00,CLR,,0.00,WeatherDisplay:10.37,2013-11-10 04:43:00,
2013-11-09 19:48:00,36.6,31.9,30.14,NNE,15,0.0,0.0,83,0.00,CLR,,0.00,WeatherDisplay:10.37,2013-11-10 04:48:00,
2013-11-09 19:53:00,36.8,32.1,30.13,NNE,15,0.0,0.0,83,0.00,CLR,,0.00,WeatherDisplay:10.37,2013-11-10 04:53:00,
2013-11-09 19:58:00,36.9,32.5,30.13,NNE,15,0.0,0.0,84,0.00,CLR,,0.00,WeatherDisplay:10.37,2013-11-10 04:58:00,
2013-11-09 20:01:00,37.0,32.3,30.13,NNE,15,0.0,0.0,83,0.00,CLR,,0.00,WeatherDisplay:10.37,2013-11-10 05:01:00,
2013-11-09 20:06:00,37.0,32.3,30.13,NNE,15,0.0,0.0,83,0.00,CLR,,0.00,WeatherDisplay:10.37,2013-11-10 05:06:00,
2013-11-09 20:11:00,37.1,32.7,30.13,NNE,15,0.0,0.0,84,0.00,CLR,,0.00,WeatherDisplay:10.37,2013-11-10 05:11:00,
2013-11-09 20:16:00,37.3,32.9,30.13,NNE,15,0.0,0.0,84,0.00,CLR,,0.00,WeatherDisplay:10.37,2013-11-10 05:16:00,
2013-11-09 20:21:00,37.4,33.0,30.13,NNE,15,0.0,0.0,84,0.00,CLR,,0.00,WeatherDisplay:10.37,2013-11-10 05:21:00,
2013-11-09 20:26:00,37.6,33.5,30.12,NNE,15,0.0,0.0,85,0.00,CLR,,0.00,WeatherDisplay:10.37,2013-11-10 05:26:00,
2013-11-09 20:31:00,37.9,33.8,30.13,NNE,15,0.0,0.0,85,0.00,CLR,,0.00,WeatherDisplay:10.37,2013-11-10 05:31:00,
2013-11-09 20:36:00,38.2,34.1,30.13,NNE,15,0.0,0.0,85,0.00,CLR,,0.00,WeatherDisplay:10.37,2013-11-10 05:36:00,
2013-11-09 20:41:00,38.7,34.6,30.13,NNE,15,0.0,0.0,85,0.00,CLR,,0.00,WeatherDisplay:10.37,2013-11-10 05:41:00,
2013-11-09 20:46:00,39.1,34.7,30.13,NNE,15,0.0,0.0,84,0.00,CLR,,0.00,WeatherDisplay:10.37,2013-11-10 05:46:00,
2013-11-09 20:51:00,39.4,35.0,30.13,NNE,15,0.0,0.0,84,0.00,CLR,,0.00,WeatherDisplay:10.37,2013-11-10 05:51:00,
2013-11-09 20:56:00,39.4,35.0,30.13,NNE,15,0.0,0.0,84,0.00,CLR,,0.00,WeatherDisplay:10.37,2013-11-10 05:56:00,
2013-11-09 21:01:00,39.6,35.2,30.13,NNE,15,0.0,0.0,84,0.00,CLR,,0.00,WeatherDisplay:10.37,2013-11-10 06:01:00,
2013-11-09 21:06:00,39.8,35.7,30.12,NNE,15,0.0,0.0,85,0.00,CLR,,0.00,WeatherDisplay:10.37,2013-11-10 06:06:00,
2013-11-09 21:11:00,40.0,35.9,30.12,NNE,15,0.0,0.0,85,0.00,CLR,,0.00,WeatherDisplay:10.37,2013-11-10 06:11:00,
2013-11-09 21:16:00,40.1,36.5,30.12,NNE,15,0.0,0.0,87,0.00,CLR,,0.00,WeatherDisplay:10.37,2013-11-10 06:16:00,
2013-11-09 21:21:00,40.1,36.5,30.12,NNE,15,0.0,0.0,87,0.00,CLR,,0.00,WeatherDisplay:10.37,2013-11-10 06:21:00,
2013-11-09 21:26:00,40.1,36.5,30.12,NNE,15,0.0,0.0,87,0.00,CLR,,0.00,WeatherDisplay:10.37,2013-11-10 06:26:00,
2013-11-09 21:31:00,40.0,36.7,30.12,NNE,15,0.0,0.0,88,0.00,CLR,,0.00,WeatherDisplay:10.37,2013-11-10 06:31:00,
2013-11-09 21:36:00,40.0,36.7,30.12,NNE,15,0.0,0.0,88,0.00,CLR,,0.00,WeatherDisplay:10.37,2013-11-10 06:36:00,
2013-11-09 21:41:00,39.9,36.6,30.12,NNE,15,0.0,0.0,88,0.00,CLR,,0.00,WeatherDisplay:10.37,2013-11-10 06:41:00,
2013-11-09 21:46:00,39.8,36.8,30.12,NNE,15,0.0,0.0,89,0.00,CLR,,0.00,WeatherDisplay:10.37,2013-11-10 06:46:00,
2013-11-09 21:51:00,39.7,36.7,30.11,NNE,15,0.0,0.0,89,0.00,CLR,,0.00,WeatherDisplay:10.37,2013-11-10 06:51:00,
2013-11-09 21:56:00,39.7,36.7,30.11,NNE,15,0.0,0.0,89,0.00,CLR,,0.00,WeatherDisplay:10.37,2013-11-10 06:56:00,
2013-11-09 22:01:00,39.6,36.6,30.11,NNE,15,0.0,0.0,89,0.00,CLR,,0.00,WeatherDisplay:10.37,2013-11-10 07:01:00,
2013-11-09 22:06:00,39.6,36.6,30.11,NNE,15,0.0,0.0,89,0.00,CLR,,0.00,WeatherDisplay:10.37,2013-11-10 07:06:00,
2013-11-09 22:11:00,39.6,36.6,30.10,NNE,15,0.0,0.0,89,0.00,CLR,,0.00,WeatherDisplay:10.37,2013-11-10 07:11:00,
2013-11-09 22:16:00,39.6,36.6,30.11,NNE,15,0.0,0.0,89,0.00,CLR,,0.00,WeatherDisplay:10.37,2013-11-10 07:16:00,
2013-11-09 22:21:00,39.7,36.7,30.10,NNE,15,0.0,0.0,89,0.00,CLR,,0.00,WeatherDisplay:10.37,2013-11-10 07:21:00,
2013-11-09 22:26:00,39.8,37.1,30.10,NNE,15,0.0,0.0,90,0.00,CLR,,0.00,WeatherDisplay:10.37,2013-11-10 07:26:00,
2013-11-09 22:31:00,39.9,36.9,30.10,NNE,15,0.0,0.0,89,0.01,RA,,0.01,WeatherDisplay:10.37,2013-11-10 07:31:00,
2013-11-09 22:36:00,39.9,37.2,30.10,NNE,15,0.0,0.0,90,0.01,RA,,0.01,WeatherDisplay:10.37,2013-11-10 07:36:00,
2013-11-09 22:41:00,39.8,37.1,30.10,NNE,15,0.0,0.0,90,0.02,RA,,0.02,WeatherDisplay:10.37,2013-11-10 07:41:00,
2013-11-09 22:46:00,39.7,37.0,30.09,NNE,15,0.0,0.0,90,0.02,RA,,0.02,WeatherDisplay:10.37,2013-11-10 07:46:00,
2013-11-09 22:51:00,39.7,37.0,30.09,NNE,15,0.0,0.0,90,0.02,,,0.02,WeatherDisplay:10.37,2013-11-10 07:51:00,
2013-11-09 22:56:00,39.7,37.0,30.09,NNE,15,0.0,0.0,90,0.02,CLR,,0.02,WeatherDisplay:10.37,2013-11-10 07:56:00,
2013-11-09 23:01:00,39.7,37.0,30.10,NNE,15,0.0,0.0,90,0.02,CLR,,0.02,WeatherDisplay:10.37,2013-11-10 08:01:00,
2013-11-09 23:06:00,39.6,37.2,30.10,NNE,15,0.0,0.0,91,0.02,CLR,,0.02,WeatherDisplay:10.37,2013-11-10 08:06:00,
2013-11-09 23:11:00,39.6,37.2,30.10,NNE,15,0.0,0.0,91,0.03,RA,,0.03,WeatherDisplay:10.37,2013-11-10 08:11:00,
2013-11-09 23:16:00,39.6,37.2,30.10,NNE,15,0.0,0.0,91,0.03,RA,,0.03,WeatherDisplay:10.37,2013-11-10 08:16:00,
2013-11-09 23:21:00,39.3,36.9,30.10,NNE,15,0.0,0.0,91,0.03,CLR,,0.03,WeatherDisplay:10.37,2013-11-10 08:21:00,
2013-11-09 23:26:00,38.9,36.5,30.09,NNE,15,0.0,0.0,91,0.03,CLR,,0.03,WeatherDisplay:10.37,2013-11-10 08:26:00,
2013-11-09 23:31:00,38.6,36.5,30.09,NNE,15,0.0,0.0,92,0.02,CLR,,0.03,WeatherDisplay:10.37,2013-11-10 08:31:00,
2013-11-09 23:36:00,38.4,36.3,30.09,NNE,15,0.0,0.0,92,0.02,CLR,,0.03,WeatherDisplay:10.37,2013-11-10 08:36:00,
2013-11-09 23:41:00,38.2,36.1,30.09,NNE,15,0.0,0.0,92,0.01,CLR,,0.03,WeatherDisplay:10.37,2013-11-10 08:41:00,
2013-11-09 23:46:00,38.1,36.0,30.09,NNE,15,0.0,0.0,92,0.01,CLR,,0.03,WeatherDisplay:10.37,2013-11-10 08:46:00,
2013-11-09 23:51:00,38.0,36.2,30.09,NNE,15,0.0,0.0,93,0.01,CLR,,0.03,WeatherDisplay:10.37,2013-11-10 08:51:00,
2013-11-09 23:56:00,37.9,36.1,30.09,NNE,15,0.0,0.0,93,0.02,RA,,0.04,WeatherDisplay:10.37,2013-11-10 08:56:00,